Theta_e
303 297 295 298 300 297 297 296 294 297 300 298 298 299 301 300 300 301 302 302 302 301 302 304 304 305 305 306 307 309 310 312 314 314 312 312 309 311 311 309 308 309 310 311
297 294 300 300 299 296 296 294 294 298 297 295 296 296 301 300 299 302 302 302 301 300 301 302 303 305 305 305 306 306 309 311 312 312 312 311 310 311 310 308 305 305 307 307
295 296 301 297 296 294 295 294 294 294 297 295 293 291 295 300 300 301 303 303 302 301 301 301 301 302 303 302 303 304 306 308 310 311 311 310 311 309 307 305 304 303 304 303
296 299 296 295 294 296 291 297 295 295 293 287 295 287 296 298 296 297 299 301 301 301 301 301 300 300 300 300 301 302 303 304 306 309 309 308 306 304 304 303 302 301 301 301
293 295 295 294 295 297 293 297 295 295 293 291 290 287 292 298 295 295 298 299 301 301 301 299 300 298 299 299 300 301 301 302 303 306 307 306 304 303 303 302 300 302 300 299
296 297 298 297 299 298 298 295 294 294 292 285 291 288 291 292 296 298 299 299 300 300 300 299 298 297 297 298 299 299 299 299 300 302 303 303 302 301 300 300 299 299 298 296
293 293 296 297 294 297 296 291 285 283 283 282 291 289 292 298 299 300 300 299 300 300 298 296 294 294 295 296 297 297 297 295 296 297 298 298 298 298 297 297 297 295 293 292
287 285 293 296 295 292 292 291 286 279 281 285 289 285 292 296 295 297 297 301 300 297 296 294 295 294 294 294 295 294 294 292 293 293 293 294 294 294 293 294 293 292 290 290
286 287 296 297 298 297 292 288 294 287 288 283 288 291 295 293 291 293 295 299 297 296 295 294 293 292 291 291 291 292 290 290 290 290 290 290 290 290 289 290 290 289 289 289
291 285 293 294 295 297 294 297 287 288 280 279 286 288 289 292 292 291 293 295 295 294 293 291 290 289 289 289 288 289 289 287 287 287 288 286 286 286 287 287 287 287 288 288
292 290 287 291 290 291 291 290 291 291 288 282 281 287 293 293 295 292 293 293 293 291 290 289 288 287 286 286 286 285 285 285 284 285 284 284 284 285 285 285 285 286 286 286
292 289 285 287 293 295 295 292 292 286 284 287 286 286 295 293 293 295 293 292 293 292 290 289 287 286 285 285 284 284 283 282 283 283 283 283 283 283 283 283 284 285 284 285
292 287 283 284 289 291 289 292 294 293 291 286 283 286 291 292 292 293 293 292 292 290 289 288 286 284 284 284 283 283 283 282 282 282 282 282 282 282 281 282 283 284 284 284
295 289 286 281 285 290 286 289 292 291 286 286 287 289 294 292 292 292 292 292 291 289 288 287 285 284 284 283 282 282 282 282 282 281 281 280 281 281 281 282 282 282 283 283
292 285 287 288 290 290 289 289 290 289 291 287 290 291 294 298 299 294 293 292 289 288 287 286 284 284 283 282 282 281 281 281 281 280 280 280 281 281 281 281 281 281 281 281
291 284 287 284 289 288 285 288 290 291 292 292 292 292 300 298 299 296 292 290 288 288 287 286 285 284 283 282 281 281 280 280 281 280 280 280 280 280 280 280 280 280 280 280
287 285 284 280 286 286 281 285 287 289 292 292 288 294 299 297 293 294 293 291 289 289 288 286 285 284 283 282 281 280 280 281 280 280 280 279 279 279 279 279 279 278 278 278
284 285 285 281 283 275 286 292 291 289 290 293 293 294 296 298 297 295 296 292 290 290 288 287 286 284 283 283 281 281 281 280 280 279 279 278 278 278 278 278 278 278 278 277
287 283 283 280 281 284 287 289 289 287 287 292 292 294 295 297 291 292 296 295 294 292 291 289 287 285 284 282 281 280 279 279 279 278 278 278 278 277 277 277 277 277 277 276
286 285 283 283 278 276 287 292 294 293 283 293 294 293 293 294 287 292 296 294 293 293 291 288 287 285 283 281 281 279 278 278 277 277 277 278 278 277 276 277 276 277 277 276
281 281 279 281 280 283 291 293 293 281 285 294 295 295 294 292 294 297 294 293 294 292 289 288 285 283 281 281 279 277 277 276 278 277 277 276 277 277 277 276 276 275 275 275
280 280 280 282 280 277 294 292 286 291 293 295 295 294 294 296 296 295 292 291 290 289 287 285 283 281 281 279 278 277 276 277 277 276 275 275 275 275 275 274 274 275 274 274
278 282 281 284 285 287 291 293 295 295 293 292 290 292 293 293 293 290 289 289 289 287 285 283 282 280 279 278 278 276 276 276 274 274 273 273 273 274 274 274 273 273 274 274
284 284 281 283 286 288 287 288 290 292 291 290 290 290 290 291 290 287 287 287 286 284 282 281 280 278 276 277 277 277 275 274 273 272 271 271 271 272 272 274 274 274 273 273
283 284 282 282 285 286 288 291 290 289 288 287 288 288 288 289 286 286 285 285 284 282 281 280 279 278 276 276 276 275 274 272 272 271 271 271 272 271 271 273 273 274 275 275
282 281 280 281 288 288 290 291 288 288 288 288 287 284 286 286 285 285 284 283 282 280 279 279 279 278 276 276 275 273 273 273 272 271 270 271 271 270 272 272 271 274 275 275
Wind_Speed
9 6 7 9 7 2 4 8 7 10 3 9 18 17 16 11 11 12 11 9 8 8 4 2 4 4 6 6 5 5 4 3 3 2 2 3 5 5 6 6 10 10 9 10
6 11 8 3 4 3 3 4 6 3 4 3 10 19 18 13 14 14 14 13 11 8 8 5 3 3 5 5 6 5 5 5 3 2 3 4 5 5 5 6 8 9 10 11
11 3 10 8 7 8 7 6 5 6 10 3 5 12 19 15 16 14 12 11 12 12 12 9 7 4 5 5 5 5 5 5 3 5 5 4 6 4 4 5 6 9 10 11
12 7 6 10 11 11 8 3 7 6 7 5 11 7 14 22 19 18 16 16 16 15 12 10 10 6 5 5 4 5 5 4 4 3 3 3 2 4 3 5 5 7 10 11
4 10 11 15 11 12 6 3 4 6 8 8 8 7 7 10 21 21 21 20 18 17 15 13 10 7 4 5 4 4 4 5 5 5 5 5 6 5 4 3 5 7 8 11
10 2 12 12 9 10 3 2 2 4 6 7 15 9 7 8 19 19 20 21 20 18 15 13 9 9 6 5 4 4 5 6 5 6 7 7 6 5 4 3 4 5 6 7
14 8 3 4 10 8 9 6 2 5 5 6 2 12 15 8 10 14 17 19 19 16 15 14 12 10 9 7 6 5 5 6 5 8 8 7 7 8 6 5 5 6 6 7
14 10 16 12 15 8 18 15 6 5 4 6 4 10 5 3 6 2 6 17 16 16 14 13 12 9 7 7 6 6 6 7 6 7 8 6 6 5 6 6 6 7 7 7
14 14 8 11 12 14 14 20 15 14 7 5 9 12 11 5 2 4 6 15 16 16 15 13 11 9 8 6 6 6 6 7 7 8 8 7 6 7 7 8 8 7 8 7
6 9 10 10 2 12 9 9 13 8 5 8 9 12 11 7 10 9 12 15 16 16 15 13 11 10 9 7 7 7 7 7 7 9 8 6 6 6 8 8 9 9 8 8
8 7 4 3 13 15 9 12 12 9 13 4 6 4 3 5 2 13 14 15 16 16 15 14 11 10 9 8 8 8 8 9 7 8 8 8 7 7 8 8 9 8 8 8
14 6 11 11 1 9 13 22 21 11 7 13 13 19 6 3 2 4 11 13 15 15 15 13 13 12 12 11 10 9 9 9 7 8 8 8 7 8 8 8 8 8 8 8
12 7 7 5 6 7 9 15 20 20 14 16 10 7 3 4 6 7 10 14 15 16 16 14 13 13 12 12 11 10 9 9 9 9 8 8 8 8 9 8 8 8 8 8
2 12 14 19 15 10 11 17 19 18 13 22 24 22 12 8 7 9 12 15 17 17 17 15 14 13 13 12 12 11 11 10 9 9 9 9 8 8 8 8 8 8 7 7
7 8 17 23 19 15 12 17 21 22 30 19 33 24 22 21 15 15 14 14 17 19 20 19 17 16 15 14 13 12 11 11 10 10 9 9 9 8 8 8 8 8 7 6
7 11 11 19 20 20 7 11 16 26 33 26 34 28 18 7 8 13 16 18 18 20 21 19 19 18 17 16 14 13 13 12 11 11 9 9 9 9 8 8 8 8 7 6
6 8 9 21 15 14 14 24 29 19 23 24 25 37 10 15 10 13 17 18 22 22 22 22 21 19 17 17 15 15 14 13 11 10 10 10 10 9 8 8 8 7 7 6
6 7 7 11 8 21 19 22 22 30 29 25 29 29 17 18 14 15 14 20 20 20 23 22 19 19 18 17 16 14 13 13 12 12 11 10 10 10 9 8 8 7 6 6
19 11 9 11 11 10 14 22 21 20 32 25 31 34 24 20 3 14 19 19 22 24 21 19 19 19 19 18 17 16 14 13 12 12 11 11 10 10 9 9 9 7 7 6
19 21 15 9 12 15 20 14 8 4 21 27 26 30 27 14 12 28 16 21 22 21 21 22 22 20 19 19 18 17 15 14 14 13 12 10 9 10 10 9 8 6 6 6
7 14 25 20 16 9 23 4 11 12 19 5 21 27 22 20 28 21 10 20 17 19 23 23 23 21 21 19 18 17 16 15 13 12 11 10 9 9 9 9 6 7 7 6
11 8 15 15 18 25 20 13 20 22 6 18 18 7 10 21 21 12 9 13 17 23 24 25 21 20 20 21 19 18 17 14 13 13 12 10 9 7 7 8 6 6 6 6
22 17 10 6 5 14 17 16 16 8 6 8 3 4 5 8 12 7 9 15 19 21 21 20 20 20 18 19 18 19 15 16 15 13 11 10 9 7 7 8 7 6 6 6
14 5 10 12 14 16 8 7 15 10 13 5 4 4 5 11 8 9 10 13 15 18 21 20 21 21 20 19 17 15 17 16 15 13 11 9 9 8 6 6 6 6 6 6
9 5 12 18 22 16 17 11 13 14 11 10 7 6 9 8 10 11 12 14 15 16 17 19 20 19 19 19 17 15 16 16 14 12 11 10 8 8 7 6 6 6 6 7
12 16 12 14 9 11 15 6 3 13 17 13 10 8 7 9 10 10 11 13 14 17 17 17 17 17 18 18 16 15 16 16 15 12 10 9 8 7 6 6 5 10 9 11
Wind_Direction
187 207 201 194 210 33 304 211 193 225 229 246 232 239 217 193 215 205 203 196 196 161 152 126 108 99 97 89 75 68 80 79 183 172 123 88 76 77 67 55 44 36 28 24
175 227 202 194 197 222 215 211 233 189 132 210 259 251 248 197 222 216 206 198 194 176 176 162 145 125 100 92 83 67 64 70 87 139 91 94 106 77 69 69 52 39 36 33
210 91 207 203 198 212 224 242 237 255 179 240 308 261 242 224 223 223 222 201 198 196 186 172 168 158 127 92 72 69 66 63 93 127 122 114 114 107 85 55 55 41 40 39
236 155 204 204 220 215 232 204 257 239 203 245 178 285 225 215 218 216 211 203 204 200 192 189 166 167 151 118 92 86 79 72 48 67 115 147 161 108 77 67 64 53 39 44
173 198 187 208 215 206 244 107 203 203 221 282 213 263 255 216 211 216 213 206 202 201 188 195 174 157 154 134 122 102 95 77 61 72 95 110 101 98 87 85 77 61 60 45
238 18 235 226 215 205 119 172 182 255 256 254 233 219 247 194 224 226 209 208 200 195 186 184 167 153 161 150 141 125 117 90 76 85 75 90 109 113 111 104 78 68 57 48
216 209 199 241 197 203 205 185 228 219 205 249 27 219 255 237 216 232 214 200 196 187 185 176 175 169 170 166 157 137 126 99 89 85 84 86 90 95 91 83 74 76 64 52
213 215 198 184 218 194 205 205 206 237 235 308 96 247 255 307 352 108 296 184 179 181 187 178 176 166 171 170 156 145 139 118 94 94 87 82 90 101 93 90 88 79 69 60
209 230 163 185 200 213 195 220 233 285 274 272 246 245 260 196 215 218 185 168 176 183 183 179 165 161 174 171 157 143 131 120 116 102 96 90 96 100 100 92 86 78 74 73
269 268 173 181 231 234 266 211 208 224 244 244 252 262 262 232 221 197 186 187 181 180 178 177 171 173 161 164 151 144 137 128 121 106 102 102 89 91 95 94 89 85 82 74
266 252 102 143 209 206 194 221 219 230 231 256 290 262 32 12 331 201 198 194 188 183 183 175 172 168 161 162 165 152 143 131 117 118 124 114 113 109 98 94 90 88 88 80
211 279 243 217 338 254 244 220 215 220 213 233 261 264 204 130 117 195 198 193 189 185 185 179 172 169 173 168 166 160 145 131 143 134 124 127 129 114 103 97 99 96 92 84
183 226 237 230 235 213 236 233 236 232 254 245 225 247 50 183 210 207 192 184 184 183 186 179 176 181 176 168 167 162 147 153 151 140 139 137 129 121 115 113 107 103 98 91
293 234 224 231 230 189 208 218 225 237 232 241 243 248 236 209 219 194 189 186 186 187 185 184 183 183 179 174 167 162 159 163 157 149 149 143 138 131 123 115 111 107 102 100
229 247 238 250 258 271 270 222 216 217 233 222 246 243 243 253 243 208 189 186 189 191 190 188 185 183 179 174 170 165 166 161 161 157 156 147 140 131 128 123 116 111 109 103
226 257 258 265 254 246 242 253 241 225 234 239 252 260 247 279 297 182 191 190 197 198 195 190 188 181 178 176 174 169 168 166 167 164 156 147 147 145 136 128 127 125 119 116
202 215 216 249 237 246 239 227 230 245 237 239 247 247 263 247 226 202 202 198 200 198 191 192 188 181 178 175 171 174 169 164 166 162 156 158 152 147 144 143 140 138 136 130
277 225 228 251 235 233 237 241 232 239 242 240 249 257 254 249 234 222 209 194 201 198 194 190 183 179 176 170 171 167 165 165 167 164 163 159 158 154 153 155 154 150 147 142
212 240 238 240 235 268 257 231 220 227 249 241 243 249 242 243 22 262 214 197 201 196 190 184 178 174 170 168 168 161 164 168 167 167 166 164 163 158 161 164 165 161 153 149
230 209 235 209 235 232 244 243 193 171 265 234 235 244 238 208 230 252 188 195 201 190 178 173 173 169 169 168 163 164 168 169 173 170 165 162 160 165 170 166 162 161 165 156
215 218 222 226 231 236 253 184 137 177 242 302 224 242 234 214 219 239 178 198 188 174 169 166 169 172 167 162 162 165 167 175 167 156 153 158 164 168 163 159 155 169 163 165
236 249 221 233 237 237 240 180 193 222 223 245 263 227 241 225 232 248 169 175 174 169 168 167 167 169 165 163 163 167 171 161 152 151 154 157 160 161 157 151 161 167 167 170
246 236 266 246 257 322 333 249 242 253 280 242 188 242 256 265 238 182 180 172 173 171 167 167 166 161 163 165 169 164 165 151 148 151 155 153 150 156 155 160 162 173 179 183
239 193 244 254 240 239 274 285 296 310 276 282 245 232 216 229 183 176 168 169 169 168 168 166 164 166 166 169 170 165 150 148 147 151 152 150 153 152 159 172 174 183 187 193
267 239 252 258 264 283 276 272 280 282 298 294 287 249 216 199 185 172 172 171 172 169 168 170 171 170 168 164 162 149 150 147 151 151 153 158 163 166 168 188 186 199 202 202
240 248 243 256 264 238 261 226 190 313 304 278 258 272 251 185 180 168 175 169 169 168 167 172 172 168 165 163 156 152 151 154 151 153 158 163 162 171 175 181 190 219 220 213